[[{"header":{"parameterUnit":"m.s-1","parameterCategory":1,"la1":30.2991,"la2":30.254,"lo1":-89.0895,"lo2":-89.0444,"dy":0.0017,"dx":0.0017,"nx":28,"ny":28,"refTime":"2024-08-30T03:00:00:Z","depth":0,"parameterNumber":2,"parameterNumberName":"U-component_of_WINDS"},"data":[0,0,0,0,0,0,0,0,0,0,0,0,0,0,0,0,0,0,0,0,0,0,0,0,0,0,0,0,0,0,0,0,0,0,0,0,0,0,0,0,0,0,0,0,0,0,0,0,0,0,0,0,0,0,0,0,0,0,-3.9901,-3.9903,0,-4.003,-4.0031,-4.0033,-3.9994,-3.9991,-3.9989,-3.9986,-4.0119,-4.0125,-4.0131,0,0,0,0,0,0,0,0,0,0,0,0,0,-3.9623,-3.9628,-3.9901,-3.9903,-3.9904,-4.003,-4.0031,-4.0033,-3.9994,-3.9991,-3.9988,-3.9985,-4.0117,-4.0124,-4.0131,0,0,0,0,0,0,0,0,0,0,0,0,0,-3.9747,-3.963,-3.9901,-3.99,-3.9901,-4.0029,-4.0031,-4.0034,-3.9995,-3.9991,-3.9987,-3.9983,-4.0115,-4.0123,-4.0132,-4.0269,0,0,-4.016,-4.0164,0,0,0,0,0,0,0,0,-3.974,-3.9757,-3.9899,-3.99,-3.9902,-3.9992,-3.9982,-4.0113,-3.9996,-3.996,-3.9986,-3.9981,-4.008,-4.0092,-4.0125,-4.0275,-4.0281,-4.0161,-4.0166,-4.017,-4.0173,0,0,0,0,0,0,0,-3.9731,-3.9751,-3.9952,-3.9901,-3.9903,-3.9894,-3.9907,-4.0007,-4.0041,-3.9962,-3.996,-3.9976,-4.008,-4.0116,-4.0127,-4.0283,-4.0161,-4.0169,-4.0174,-4.0178,-4.0552,-4.0556,0,0,0,0,0,0,-3.9722,-3.9745,-3.9948,-3.9956,-3.9809,-3.9902,-3.9917,-3.9967,-4.004,-4.0047,-3.9979,-3.9973,-4.0102,-4.0117,-4.0132,-4.0295,-4.017,-4.0179,-4.0184,-4.0547,-4.0552,-4.0557,0,0,0,0,0,0,-3.9716,-3.974,-3.9943,-3.985,-3.9875,-3.9911,-3.9968,-3.9972,-4.0007,-4.0052,-4.0058,-4.0009,-4.01,-4.0119,-4.0235,-4.0299,-4.0183,-4.0191,-4.0542,-4.0549,-4.0555,-4.0624,0,0,0,0,0,0,-3.9708,-3.9738,-3.979,-3.9851,-3.988,-4.0043,-3.9972,-3.9977,-4.0023,-4.0017,-4.0082,-4.0089,-4.0098,-4.0222,-4.0244,-4.031,-4.0198,-4.0536,-4.0545,-4.0553,-4.0616,-4.0632,-4.0646,0,0,0,0,0,-3.9698,-3.9805,-3.9793,-3.9818,-3.9946,-4.0047,-4.0064,-4.0072,-4.0028,-4.0081,-4.011,-4.0087,-4.029,-4.0234,-4.0259,-4.0328,-4.0532,-4.0542,-4.0552,-4.0609,-4.0629,-4.0646,0,0,0,0,0,0,-3.9751,-3.9813,-3.98,-3.993,-3.9984,-4.004,-4.0107,-4.0093,-4.016,-4.0151,-4.0159,-4.0174,-4.0292,-4.0322,-4.0259,-4.0464,-4.0404,-4.042,-4.0439,-4.0459,-4.0473,-4.0462,-4.0206,0,0,0,0,0,-3.9778,-3.9855,-3.9905,-4.0015,-4.0042,-4.007,-4.0115,-4.0116,-4.0172,-4.0195,-4.0232,-4.0287,-4.0363,-4.0413,-4.0486,-4.0621,-4.0634,-4.0682,-4.0697,-4.0709,-4.0721,-4.0794,-4.0815,-4.059,-4.059,-4.059,0,0,-3.9834,-3.9877,-3.9925,-4.0027,-4.0068,-4.0147,-4.0089,-4.0176,-4.0235,-4.0208,-4.0319,-4.0349,-4.0411,-4.0537,-4.0594,-4.0565,-4.0787,-4.0722,-4.0731,-4.0737,-4.0806,-4.0828,-4.0846,-4.0597,-4.0596,-4.0595,0,0,-3.9976,-4.0017,-4.0112,-4.0155,-4.0219,-4.0237,-4.026,-4.0319,-4.0337,-4.0449,-4.043,-4.0501,-4.0632,-4.0677,-4.0717,-4.0877,-4.0858,-4.0901,-4.0978,-4.1049,-4.1066,-4.1082,-4.1137,-4.1157,-4.0913,-4.0914,-4.0914,0,-4.0037,-4.0156,-4.0163,-4.0251,-4.0296,-4.0275,-4.0371,-4.0413,-4.0498,-4.0529,-4.0496,-4.0659,-4.07,-4.0835,-4.0874,-4.0908,-4.0934,-4.0892,-4.1063,-4.1079,-4.1094,-4.1146,-4.1167,-4.0918,-4.0918,-4.0917,-4.0917,0,-4.0227,-4.031,-4.0379,-4.046,-4.0513,-4.0605,-4.0626,-4.0679,-4.0677,-4.0699,-4.0812,-4.0861,-4.0942,-4.0975,-4.0974,-4.111,-4.109,-4.1061,-4.1,-4.1119,-4.1169,-4.1189,-4.0925,-4.0923,-4.0922,-4.0921,0,0,-4.0404,-4.0488,-4.0513,-4.0549,-4.0619,-4.0683,-4.0774,-4.0853,-4.0897,-4.0957,-4.1033,-4.1145,-4.1117,-4.1163,-4.1167,-4.123,-4.1351,-4.1192,-4.1194,-4.1218,-4.1502,-4.1522,-4.1545,-4.134,-4.1344,-4.1347,-4.1496,0,-4.0549,-4.0708,-4.0718,-4.0862,-4.0938,-4.092,-4.1,-4.1051,-4.1074,-4.1142,-4.1168,-4.1246,-4.1206,-4.1233,-4.1294,-4.1323,-4.1408,-4.1313,-4.141,-4.1413,-4.1391,-4.1572,-4.1593,-4.1731,-4.1516,-4.1519,-4.1522,0,-4.074,-4.0804,-4.0956,-4.1014,-4.1046,-4.1117,-4.119,-4.1256,-4.1313,-4.1326,-4.1377,-4.1372,-4.1466,-4.1405,-4.1533,-4.1469,-4.1509,-4.153,-4.1536,-4.1542,-4.1472,-4.1581,-4.1776,-4.1795,-4.1553,-4.155,-4.1548,0,-4.085,-4.0976,-4.1082,-4.1114,-4.1185,-4.1235,-4.1267,-4.1321,-4.1367,-4.1432,-4.1462,-4.1537,-4.1578,-4.1636,-4.1652,-4.1606,-4.178,-4.172,-4.1792,-4.1792,-4.1827,-4.1824,-4.2028,-4.1858,-4.1858,-4.1857,-4.1857,0,-4.101,-4.1103,-4.1132,-4.1197,-4.1301,-4.1312,-4.1414,-4.1443,-4.1492,-4.1562,-4.1553,-4.1619,-4.1637,-4.1708,-4.1721,-4.1824,-4.1844,-4.1856,-4.1858,-4.1855,-4.1853,-4.188,-4.1869,-4.1863,-4.1862,-4.186,-4.1859,0,-4.115,-4.1173,-4.1287,-4.1345,-4.1362,-4.1436,-4.1485,-4.1548,-4.157,-4.166,-4.1682,-4.1717,-4.1799,-4.1821,-4.192,-4.1929,-4.205,-4.2044,-4.203,-4.2029,-4.2098,-4.209,-4.2324,-4.2355,-4.2167,-4.2169,-4.217,0,-4.1249,-4.1319,-4.1385,-4.1431,-4.1465,-4.154,-4.1588,-4.1602,-4.1652,-4.1724,-4.1778,-4.1859,-4.1923,-4.2055,-4.209,-4.2165,-4.216,-4.2237,-4.2171,-4.2165,-4.2158,-4.2152,-4.2159,-4.2248,-4.225,-4.2252,-4.2253,0,-4.1421,-4.1429,-4.1498,-4.1571,-4.1628,-4.1686,-4.1742,-4.1781,-4.1803,-4.186,-4.1943,-4.1994,-4.2094,-4.2174,-4.225,-4.2284,-4.2272,-4.2274,-4.2294,-4.229,-4.2278,-4.2283,-4.2061,-4.2268,-4.2266,-4.2265,-4.2264,-4.2264,-4.1542,-4.1603,-4.1658,-4.1735,-4.1779,-4.1832,-4.1893,-4.1923,-4.1992,-4.2074,-4.208,-4.217,-4.2226,-4.2327,-4.2365,-4.2436,-4.2413,-4.2442,-4.2449,-4.2456,-4.246,-4.2269,-4.245,-4.245,-4.2449,-4.2449,-4.2449,0,-4.1711,-4.1746,-4.1817,-4.1895,-4.1955,-4.194,-4.2001,-4.2053,-4.2132,-4.2185,-4.225,-4.2345,-4.2423,-4.2464,-4.2541,-4.259,-4.2587,-4.261,-4.2605,-4.2612,-4.2478,-4.2451,-4.2611,-4.2611,-4.2611,-4.2611,-4.2611,-4.2611,-4.1806,-4.1909,-4.1924,-4.2048,-4.2083,-4.217,-4.2207,-4.2255,-4.2298,-4.2404,-4.2469,-4.2495,-4.2544,-4.2625,-4.2695,-4.2705,-4.2733,-4.2759,-4.2766,-4.2639,-4.2622,-4.2606,-4.2581,-4.2765,-4.2765,-4.2894,-4.2895,-4.2896]},{"header":{"parameterUnit":"m.s-1","parameterCategory":1,"la1":30.2991,"la2":30.254,"lo1":-89.0895,"lo2":-89.0444,"dy":0.0017,"dx":0.0017,"nx":28,"ny":28,"refTime":"2024-08-30T03:00:00:Z","depth":0,"parameterNumber":3,"parameterNumberName":"V-component_of_WINDS"},"data":[0,0,0,0,0,0,0,0,0,0,0,0,0,0,0,0,0,0,0,0,0,0,0,0,0,0,0,0,0,0,0,0,0,0,0,0,0,0,0,0,0,0,0,0,0,0,0,0,0,0,0,0,0,0,0,0,0,0,1.0587,1.0586,0,1.0564,1.0564,1.0564,1.0492,1.0491,1.0489,1.0488,1.0467,1.0468,1.0469,0,0,0,0,0,0,0,0,0,0,0,0,0,1.057,1.0571,1.0587,1.0586,1.0586,1.0564,1.0564,1.0564,1.0493,1.0491,1.0489,1.0487,1.0467,1.0468,1.0469,0,0,0,0,0,0,0,0,0,0,0,0,0,1.0566,1.0571,1.0587,1.0548,1.0544,1.0564,1.0564,1.0563,1.0493,1.0491,1.0488,1.0486,1.0466,1.0468,1.0469,1.0525,0,0,1.0473,1.0474,0,0,0,0,0,0,0,0,1.0566,1.0566,1.0554,1.0551,1.0547,1.0529,1.055,1.0551,1.0494,1.0513,1.0488,1.0485,1.049,1.0489,1.049,1.0524,1.0523,1.0473,1.0474,1.0475,1.0475,0,0,0,0,0,0,0,1.0567,1.0567,1.0578,1.0554,1.0549,1.0533,1.0529,1.055,1.0515,1.0511,1.0506,1.0504,1.0487,1.0489,1.0489,1.0523,1.0473,1.0475,1.0475,1.0476,1.0603,1.0605,0,0,0,0,0,0,1.0572,1.0568,1.0578,1.0577,1.0551,1.0535,1.0531,1.0537,1.0514,1.0509,1.0506,1.0501,1.0488,1.0487,1.0488,1.0552,1.0475,1.0476,1.0477,1.06,1.0603,1.0606,0,0,0,0,0,0,1.0572,1.0574,1.0579,1.0571,1.057,1.0538,1.0545,1.0538,1.0539,1.0511,1.0504,1.0514,1.0486,1.0486,1.0516,1.055,1.0477,1.0478,1.0597,1.0601,1.0605,1.0681,0,0,0,0,0,0,1.0572,1.0574,1.0594,1.0572,1.0571,1.0607,1.0547,1.0539,1.0541,1.0534,1.0516,1.0511,1.0484,1.0515,1.0518,1.0551,1.0479,1.0594,1.0599,1.0604,1.0675,1.0687,1.0696,0,0,0,0,0,1.0572,1.0617,1.0596,1.0597,1.0596,1.061,1.0609,1.0576,1.0545,1.0565,1.0547,1.0512,1.0547,1.0518,1.0521,1.0555,1.0592,1.0598,1.0603,1.067,1.0684,1.0696,0,0,0,0,0,0,1.0644,1.0613,1.0589,1.0629,1.0622,1.0597,1.0622,1.0592,1.0595,1.0588,1.0548,1.0545,1.0581,1.0571,1.0541,1.0609,1.0563,1.057,1.0613,1.0626,1.0637,1.0638,1.048,0,0,0,0,0,1.0665,1.0678,1.0651,1.0688,1.0686,1.0655,1.066,1.0635,1.0627,1.0624,1.0608,1.0602,1.0612,1.0619,1.0626,1.0674,1.0669,1.0699,1.071,1.0719,1.0724,1.0749,1.0762,1.0625,1.0625,1.0625,0,0,1.0708,1.0693,1.0703,1.0702,1.0694,1.071,1.0653,1.0671,1.0682,1.0627,1.0654,1.0643,1.0634,1.0673,1.069,1.0666,1.0761,1.0726,1.0733,1.0734,1.0756,1.0769,1.0781,1.0629,1.0628,1.0627,0,0,1.0793,1.0783,1.0813,1.0806,1.0795,1.0774,1.0782,1.0762,1.0752,1.0779,1.0737,1.0751,1.0768,1.0763,1.0763,1.0849,1.0816,1.0852,1.0908,1.0933,1.0943,1.0953,1.0983,1.0994,1.0859,1.0859,1.0859,0,1.0848,1.0868,1.0832,1.0853,1.0854,1.0805,1.0835,1.0831,1.0823,1.0826,1.08,1.082,1.0811,1.0848,1.0869,1.0871,1.0879,1.0853,1.0945,1.0954,1.0962,1.099,1.1002,1.0863,1.0863,1.0862,1.0862,0,1.0935,1.0951,1.0976,1.0969,1.0973,1.0999,1.0968,1.0977,1.0953,1.0935,1.0964,1.0951,1.0955,1.0962,1.0939,1.0997,1.0983,1.0952,1.0905,1.098,1.1006,1.1016,1.0869,1.0868,1.0866,1.0865,0,0,1.1064,1.1038,1.1048,1.1044,1.1029,1.104,1.1065,1.1068,1.1076,1.1073,1.1092,1.1109,1.108,1.108,1.1056,1.1078,1.1146,1.1044,1.1043,1.1063,1.1209,1.1232,1.1245,1.1126,1.1128,1.1129,1.121,0,1.1144,1.1182,1.1152,1.1196,1.121,1.1164,1.1186,1.1179,1.1164,1.1174,1.1158,1.117,1.1131,1.1131,1.115,1.1134,1.1175,1.1128,1.1143,1.1144,1.1145,1.1258,1.1282,1.1359,1.122,1.1221,1.1223,0,1.1242,1.1242,1.1288,1.1271,1.1275,1.1295,1.1295,1.1306,1.1298,1.1286,1.1287,1.1257,1.1281,1.1236,1.1268,1.1237,1.1242,1.1235,1.1237,1.1236,1.1187,1.126,1.1383,1.1394,1.1238,1.1237,1.1236,0,1.133,1.1343,1.1371,1.137,1.1351,1.1365,1.1358,1.1348,1.1352,1.1354,1.1356,1.1361,1.1363,1.1368,1.1341,1.1311,1.1377,1.133,1.1367,1.1368,1.1381,1.1381,1.1506,1.1387,1.1387,1.1387,1.1387,0,1.1421,1.1451,1.1411,1.1429,1.1461,1.1426,1.146,1.1448,1.144,1.1455,1.1417,1.1432,1.1396,1.1408,1.1388,1.1417,1.1419,1.141,1.1404,1.1412,1.1413,1.1414,1.1407,1.139,1.1389,1.1389,1.1388,0,1.1524,1.1499,1.1527,1.1507,1.1502,1.1527,1.151,1.1526,1.1509,1.1529,1.1531,1.1505,1.1517,1.1491,1.15,1.1486,1.1528,1.1514,1.153,1.1526,1.1564,1.156,1.1693,1.1708,1.1581,1.1582,1.1583,0,1.1583,1.1605,1.1587,1.1594,1.1589,1.1601,1.1605,1.1573,1.1579,1.1573,1.159,1.1599,1.1604,1.1627,1.1608,1.1615,1.1601,1.1647,1.1601,1.161,1.16,1.1599,1.1601,1.1656,1.1657,1.1658,1.166,0,1.1691,1.1678,1.1685,1.1688,1.1694,1.1695,1.1694,1.1702,1.1668,1.1677,1.1689,1.1693,1.1702,1.1712,1.1715,1.1708,1.1679,1.1674,1.1683,1.1691,1.1699,1.1695,1.1555,1.1671,1.167,1.1669,1.1668,1.1668,1.1773,1.1791,1.1781,1.179,1.1786,1.1786,1.18,1.1785,1.1794,1.1798,1.1779,1.1795,1.1788,1.1789,1.1786,1.1799,1.1778,1.1791,1.1794,1.1797,1.1803,1.1699,1.1799,1.1799,1.1799,1.1798,1.1798,0,1.1878,1.187,1.1879,1.1878,1.1886,1.1858,1.1855,1.1864,1.1878,1.1874,1.188,1.1894,1.1904,1.1887,1.1894,1.1908,1.1894,1.1911,1.1908,1.1908,1.1822,1.1813,1.1921,1.1921,1.1921,1.1921,1.1921,1.1921,1.1934,1.1961,1.1947,1.1973,1.1964,1.1979,1.198,1.198,1.1977,1.1994,1.2001,1.1991,1.1982,1.1988,1.1996,1.1991,1.1995,1.2016,1.2006,1.1926,1.1914,1.1902,1.1893,1.2017,1.2017,1.2091,1.2091,1.2092]}]]